GEFSSE_con_probscp_282.txt.gz
Probability
0 1 2 2 1 0 1 2 2 2 3 3 3 3 2 1 0 0 0 0 0 1 3 3 2 1 0 0 0 0 0 0 0 0 1 2 3 3 4 5 4 1 0
0 0 1 1 0 0 1 2 2 2 3 3 3 3 1 0 0 0 0 1 1 2 3 2 1 0 0 0 0 0 0 0 0 0 1 2 2 2 4 5 4 1 0
0 0 0 0 0 0 1 2 3 3 3 3 3 2 1 0 0 0 0 1 2 2 2 1 0 1 1 0 0 0 0 0 0 1 2 2 1 1 3 4 3 1 1
0 0 0 0 0 0 1 2 3 3 3 3 2 1 1 1 1 1 1 2 2 2 1 0 1 2 1 0 0 0 0 0 1 1 1 2 1 0 1 1 1 1 2
0 1 1 0 0 0 1 1 1 1 2 1 1 1 1 2 2 2 2 3 3 2 0 1 2 2 1 0 0 0 0 0 0 0 1 1 1 0 0 0 0 1 1
1 2 2 1 0 0 1 1 0 0 0 0 2 3 3 3 3 3 3 3 3 1 0 1 2 2 1 0 0 0 0 0 0 0 0 0 0 0 0 0 0 0 0
1 2 2 1 0 1 1 0 0 0 0 1 3 4 4 3 3 3 3 3 3 1 1 2 3 2 0 0 0 0 0 0 0 0 0 0 0 1 1 1 0 0 0
0 1 1 1 0 1 1 0 0 1 1 3 4 4 3 3 4 3 3 3 3 2 1 2 3 2 1 1 1 1 1 1 1 1 2 1 2 3 3 2 1 1 0
0 0 0 0 0 0 1 1 1 1 3 4 4 4 3 3 4 3 1 1 2 2 2 2 3 3 3 2 2 2 1 1 2 3 3 3 4 5 4 3 3 2 1
0 0 0 0 0 0 1 2 2 2 4 4 4 3 3 3 3 3 1 0 1 2 2 2 3 3 3 3 3 3 1 1 3 3 3 4 5 5 4 3 3 3 3
0 1 1 0 0 0 1 1 2 3 4 3 3 3 3 3 3 2 1 0 0 1 2 2 3 3 3 3 3 3 3 3 3 3 3 4 6 6 4 3 3 3 3
1 2 3 2 1 1 1 1 1 1 2 2 2 2 2 2 2 1 1 0 0 0 1 1 3 3 3 3 3 3 3 3 3 3 4 5 6 6 4 3 3 3 4
2 3 4 5 4 4 2 1 0 0 0 1 1 1 1 1 1 0 0 0 0 0 0 1 2 3 3 3 3 3 3 3 3 3 4 6 6 6 4 3 3 4 5
3 3 5 6 6 5 3 1 0 0 0 0 0 0 0 0 0 0 1 1 0 0 0 1 2 3 3 3 3 3 3 3 3 4 5 5 6 5 4 3 3 4 6
3 4 5 5 4 4 3 1 1 1 0 0 0 0 1 0 0 0 1 1 0 0 0 1 1 2 3 3 3 3 3 3 3 4 4 4 4 4 3 3 2 4 6
4 5 6 4 2 2 3 3 2 1 0 0 0 1 1 0 0 0 1 1 0 0 1 1 1 1 2 3 3 3 3 3 4 4 4 4 3 3 2 2 2 3 3
5 6 6 3 1 1 3 4 2 1 0 0 0 1 1 0 0 0 0 0 0 0 1 2 2 1 1 1 2 3 3 3 3 4 5 5 4 2 1 1 1 1 1
9 8 7 3 1 2 4 5 3 1 0 0 0 1 1 0 0 0 0 0 0 0 0 1 2 1 0 0 1 2 3 3 3 3 4 5 4 3 1 1 1 1 0
11 9 7 5 3 2 4 5 3 2 1 1 1 1 1 1 1 1 1 0 0 0 0 0 1 1 1 0 0 1 1 2 3 3 3 4 4 4 3 2 2 3 2
11 9 8 6 4 3 3 3 3 3 3 2 3 4 4 4 3 3 2 1 1 2 1 0 1 2 1 1 0 0 0 1 2 3 3 3 4 4 4 4 5 5 5
9 9 9 7 5 4 3 3 3 3 3 3 3 4 5 5 5 4 4 3 3 3 2 1 1 2 2 1 0 0 0 0 1 1 2 3 3 4 5 6 7 6 6
8 9 9 8 6 4 3 2 2 2 2 1 1 2 3 4 5 5 5 4 3 3 3 2 1 1 1 1 0 0 0 0 1 1 2 3 4 4 5 6 7 7 6
10 10 10 10 9 6 4 3 2 1 1 0 0 0 1 1 2 5 5 4 3 3 3 2 1 0 0 0 0 0 0 0 1 1 1 2 5 5 4 4 5 6 6
12 12 12 12 11 9 6 4 2 1 0 0 0 0 0 0 1 4 5 4 3 3 3 2 1 1 0 0 1 1 1 1 1 1 1 2 4 5 4 4 4 5 5
13 13 13 13 13 13 10 7 4 2 1 1 1 1 0 0 2 4 6 5 4 4 5 5 5 4 3 3 3 3 3 2 2 1 1 2 2 2 3 3 4 4 4
12 12 12 13 14 15 12 9 6 3 2 2 2 2 1 1 3 5 7 7 5 4 6 7 8 8 7 7 7 5 4 3 3 2 2 3 2 1 1 2 3 3 3

GEFSSE_con_probscp_288.txt.gz
Probability
0 0 0 0 1 1 1 0 1 2 3 3 2 1 0 1 0 0 0 0 0 1 3 2 2 3 4 3 3 2 3 6 6 5 4 3 3 3 4 5 4 1 0
0 0 0 0 0 0 0 0 1 3 3 3 1 0 0 1 0 0 0 0 0 1 2 2 1 1 2 2 1 1 2 4 5 4 3 3 3 3 3 4 3 1 0
0 0 0 0 0 0 0 1 2 3 3 2 1 0 0 0 0 0 0 0 0 1 1 1 1 1 1 1 1 1 2 4 4 3 1 1 2 3 3 3 1 0 0
0 0 0 0 0 0 1 2 3 3 3 1 0 0 0 0 0 0 0 0 0 0 1 1 1 1 1 1 1 1 2 3 3 1 0 0 1 1 2 2 1 0 0
0 0 0 0 0 0 1 3 4 4 2 1 0 0 0 0 0 0 0 0 0 1 1 1 1 0 0 0 0 1 1 2 1 0 0 0 0 1 2 1 0 0 0
0 0 0 0 0 0 1 3 5 5 2 1 1 1 0 0 0 0 0 0 0 1 1 0 0 0 0 0 0 0 1 1 0 0 0 0 1 3 3 2 1 1 1
0 0 0 0 0 0 1 3 5 4 2 2 2 2 1 0 0 0 1 1 1 1 0 0 0 0 0 0 1 2 2 1 0 0 0 0 1 3 4 3 3 2 2
0 0 1 1 1 1 1 1 2 2 2 1 2 2 2 1 1 1 2 2 2 1 0 0 0 0 0 1 2 4 4 2 1 0 0 0 2 5 5 4 4 4 4
0 0 1 2 3 3 2 1 1 2 2 2 2 3 4 4 3 3 3 3 1 1 0 0 0 0 1 2 3 5 5 3 1 0 0 2 6 8 9 7 6 6 6
0 1 1 1 2 3 2 2 3 4 3 3 3 5 6 6 4 3 2 2 1 0 0 1 1 1 2 3 4 5 6 4 1 0 1 4 9 11 12 11 8 8 7
1 1 1 1 1 1 1 2 3 3 3 3 3 4 5 4 2 1 2 2 1 1 2 3 3 3 4 4 5 6 6 4 2 1 3 6 10 13 13 12 11 10 10
0 1 1 0 0 0 1 1 1 1 3 3 3 3 3 2 1 1 2 3 2 2 4 5 5 5 5 5 7 7 6 5 2 2 5 8 10 12 13 13 13 13 13
1 1 1 0 0 0 0 0 0 1 2 3 3 2 1 1 2 2 3 3 3 3 3 4 6 6 6 7 8 7 5 4 3 3 7 10 10 10 12 12 12 12 13
4 4 2 2 2 1 0 0 0 1 2 3 3 1 1 2 4 4 4 4 4 4 3 4 7 7 7 8 7 6 6 6 5 5 8 11 10 9 10 10 10 9 9
7 6 4 3 3 1 0 0 0 1 1 2 3 2 1 3 6 6 5 4 4 4 4 7 9 9 8 8 8 7 8 8 6 5 7 10 11 10 10 9 8 6 5
6 5 4 4 4 3 1 0 1 1 2 3 4 3 3 4 6 6 5 5 4 4 6 8 10 10 10 10 9 9 9 9 7 5 7 10 12 12 11 9 8 7 6
4 4 3 3 5 6 3 2 1 2 4 6 6 5 4 4 6 7 6 5 5 6 6 7 8 8 9 9 9 9 8 9 9 9 10 12 13 14 14 13 13 13 11
6 6 5 4 5 7 6 4 3 4 6 7 8 7 6 6 7 8 7 8 9 8 6 5 6 6 7 6 7 7 7 9 11 12 12 12 14 15 15 17 20 19 16
13 12 8 6 6 7 7 6 5 6 7 8 8 7 6 7 9 9 10 11 11 10 7 5 7 9 8 6 4 5 7 10 12 13 12 13 15 17 16 18 21 21 19
19 17 13 9 7 8 7 7 6 6 6 7 7 6 5 6 7 9 11 12 10 8 7 6 9 11 9 6 3 3 5 8 12 14 14 15 17 18 17 18 20 20 20
22 23 20 14 11 10 9 8 7 6 5 6 6 6 6 5 5 7 9 10 9 7 7 7 10 10 6 4 3 3 4 7 12 15 17 19 18 16 15 17 20 21 20
25 27 25 20 16 13 12 10 8 6 4 4 5 7 7 5 5 5 6 7 9 9 9 10 11 10 6 4 4 4 4 6 10 13 19 21 20 17 14 13 18 23 23
25 26 25 22 20 17 14 12 9 6 3 3 4 7 9 8 6 5 7 9 10 11 12 12 12 11 9 7 7 7 7 8 9 13 17 18 19 19 15 13 17 22 23
23 22 24 24 23 20 17 13 9 6 3 3 4 6 9 10 10 9 11 13 14 14 15 14 13 13 12 10 9 10 11 12 13 13 12 13 16 19 16 13 14 17 19
21 20 23 27 27 24 19 13 9 8 6 5 5 6 9 12 15 16 17 19 20 20 20 18 17 18 16 13 11 12 13 14 15 13 10 10 13 15 15 13 14 16 17
21 20 23 29 29 25 19 12 10 10 8 7 7 8 10 14 19 20 22 23 24 25 23 21 20 20 19 16 13 13 13 13 13 12 10 10 11 13 14 16 18 18 17

GEFSSE_con_probscp_294.txt.gz
Probability
0 1 2 1 1 1 1 1 1 2 3 3 3 4 5 2 0 0 0 0 0 0 0 1 3 5 6 7 7 7 7 6 4 4 5 6 7 9 9 8 7 5 4
0 1 1 1 1 2 2 2 2 2 2 3 3 4 4 3 1 0 0 0 0 0 1 1 3 5 7 7 7 8 8 7 5 4 4 5 7 9 9 8 6 5 4
0 0 0 1 2 3 3 3 2 1 1 1 2 3 3 3 2 1 0 0 0 0 1 2 4 5 5 6 7 8 8 7 6 4 4 4 5 8 9 8 6 5 4
0 0 0 1 2 3 3 3 1 0 1 1 1 1 2 2 2 1 1 0 0 0 1 2 3 3 4 5 6 6 6 7 5 4 3 3 4 6 7 6 5 3 2
0 0 0 0 1 2 3 2 1 1 1 2 1 1 1 1 1 0 0 0 0 0 0 1 1 2 2 3 4 4 4 5 4 2 1 1 2 4 5 5 4 2 1
0 0 0 0 1 2 2 2 1 1 1 1 1 0 0 0 0 0 0 0 0 1 0 0 0 1 1 1 2 2 2 3 2 1 0 0 1 2 3 4 4 3 2
0 0 0 1 2 3 3 2 1 1 1 0 0 0 0 0 0 0 1 0 0 1 1 0 0 0 0 0 0 1 1 2 1 0 0 0 1 1 2 3 3 3 2
0 0 0 1 1 3 3 2 2 3 3 2 1 1 1 1 0 0 0 0 0 1 1 0 0 0 0 0 0 1 1 1 0 0 0 0 0 0 1 2 2 2 1
0 0 0 0 1 1 1 1 2 4 5 5 3 2 1 0 0 0 0 0 0 1 1 0 0 0 0 0 0 1 1 0 0 0 0 0 0 0 0 1 1 1 1
0 0 0 0 0 0 0 0 1 3 6 6 5 3 1 0 0 0 0 1 1 2 1 1 1 0 0 0 0 0 0 0 0 0 0 0 1 1 0 0 0 1 1
0 0 0 0 0 0 0 0 0 1 3 3 4 3 1 0 0 1 1 2 3 3 3 2 1 0 0 0 0 0 1 1 0 0 0 1 2 2 1 1 1 1 2
0 0 0 0 0 1 0 0 0 0 1 1 1 1 1 0 0 1 2 3 3 3 2 2 1 0 0 0 0 0 1 1 0 0 1 2 3 3 2 1 1 3 4
0 0 0 0 0 0 0 0 0 0 0 0 0 0 0 0 0 1 2 3 2 1 1 1 0 1 1 0 0 0 0 0 0 0 1 2 3 2 1 1 2 4 6
1 1 2 1 0 0 0 0 0 0 0 0 0 0 0 0 0 0 1 2 1 0 0 0 1 2 2 1 1 1 1 1 0 0 1 2 3 2 1 3 4 5 6
2 2 2 2 0 0 0 0 0 0 0 0 0 0 0 0 0 0 0 0 0 0 0 1 1 2 2 2 1 1 2 2 1 1 1 2 4 4 3 4 5 6 6
1 1 2 1 0 0 0 0 0 0 0 0 0 0 0 0 0 0 0 0 0 0 0 0 0 1 1 2 1 1 2 2 3 3 3 3 5 8 7 6 7 8 8
0 1 1 1 0 0 1 1 1 0 0 0 0 0 0 0 0 0 0 0 0 0 0 0 0 0 0 0 0 0 1 2 4 5 5 3 4 8 10 9 10 11 11
0 0 0 0 1 1 2 1 1 1 1 0 0 0 0 0 0 0 0 0 0 0 0 0 0 0 0 0 0 0 0 1 2 3 3 3 2 4 8 11 14 16 15
0 0 0 0 1 2 2 1 0 1 1 1 0 0 0 0 0 0 0 0 0 0 0 0 0 0 0 0 0 0 0 0 0 0 1 2 2 3 5 10 15 18 19
0 0 0 0 1 1 1 0 0 0 1 1 0 0 0 0 0 1 1 0 0 0 0 0 0 0 0 0 0 0 0 0 0 0 0 1 1 2 3 6 10 13 15
2 2 1 1 1 1 1 1 1 0 0 0 0 0 1 1 1 2 2 1 0 0 0 0 0 0 0 0 0 0 0 0 0 0 0 0 0 1 1 3 4 5 6
6 6 3 2 2 2 2 2 2 1 0 0 1 1 2 3 3 3 3 2 1 1 1 0 1 1 1 1 1 1 1 1 0 0 0 0 0 0 0 1 1 0 1
8 7 5 3 3 3 3 3 3 2 2 1 2 3 3 4 4 4 3 4 4 4 3 2 2 3 3 3 3 3 3 2 1 1 0 0 0 0 0 0 0 0 0
8 7 5 4 4 5 5 5 5 4 4 4 4 4 4 5 5 4 4 5 5 5 4 4 3 4 6 6 5 4 5 4 3 3 2 1 1 1 0 0 0 0 0
9 9 7 6 7 8 8 8 7 6 6 6 5 5 5 6 6 6 6 6 6 5 5 5 5 6 8 8 7 6 6 6 6 5 5 4 4 3 1 1 0 0 0
10 11 10 8 9 10 10 9 8 7 6 6 6 6 6 6 6 7 7 7 6 6 5 6 7 8 9 9 8 7 6 6 6 6 6 6 6 4 3 2 1 0 0

GEFSSE_con_probscp_300.txt.gz
Probability
1 2 4 4 4 3 3 3 3 3 3 3 3 3 3 4 5 6 6 6 7 7 8 9 10 11 13 11 10 10 7 5 5 5 4 4 5 7 8 8 7 7 8
2 3 3 4 4 3 3 3 3 3 3 3 3 3 3 3 4 5 6 6 6 6 7 9 10 10 11 11 10 9 8 6 6 5 4 4 6 8 9 8 7 7 6
3 3 3 4 4 4 3 3 3 3 3 3 3 3 3 3 3 4 5 6 5 5 6 7 8 9 9 9 10 9 8 7 6 6 6 6 7 9 9 8 7 6 5
2 3 3 3 4 3 3 3 3 3 3 3 3 3 3 3 3 3 3 4 4 4 4 4 6 6 6 7 10 10 8 7 7 6 6 6 7 9 9 9 8 7 5
1 1 3 3 3 3 3 2 2 3 3 3 3 3 3 3 2 1 2 4 4 3 3 3 3 3 3 5 9 11 8 7 6 4 4 5 7 9 10 9 8 7 6
1 1 3 3 4 3 3 2 2 3 3 3 2 2 3 3 2 1 2 3 3 2 1 1 2 2 2 5 8 9 7 6 4 3 3 4 6 8 9 8 7 6 6
2 3 3 4 4 4 3 2 2 2 2 1 1 1 2 3 3 2 2 2 1 1 0 0 1 2 4 5 7 6 6 4 2 2 2 3 6 7 7 6 5 4 4
3 3 3 3 4 4 4 3 2 1 1 0 1 1 2 3 3 3 2 1 0 0 1 1 2 4 5 5 5 5 4 3 1 0 1 4 6 6 6 5 5 4 3
3 3 3 3 3 4 5 4 2 1 1 1 2 3 3 3 2 2 2 1 1 1 2 2 3 4 3 3 4 5 4 3 1 1 2 5 6 6 5 5 5 4 3
3 3 3 3 3 3 4 3 3 2 2 2 2 2 2 1 1 1 2 2 2 1 2 1 1 2 1 1 3 5 4 2 1 2 3 5 5 4 3 2 3 3 3
3 2 2 3 3 3 3 2 2 2 1 1 1 1 1 0 0 1 2 3 3 2 1 1 1 1 0 1 3 3 2 1 1 2 3 4 5 3 2 1 1 3 3
2 2 1 2 3 3 2 1 1 1 0 0 0 0 0 0 0 0 1 2 3 2 1 1 1 0 0 1 2 2 1 0 0 1 2 3 4 3 3 2 2 3 3
1 1 1 1 2 1 1 0 0 0 0 0 0 0 0 0 0 0 0 1 1 1 0 1 1 0 0 0 1 1 0 0 0 0 1 3 3 3 3 3 3 3 4
0 0 0 0 0 0 0 0 0 0 0 0 0 0 0 0 0 0 0 0 0 0 0 0 0 0 0 0 0 0 0 0 0 0 2 3 3 3 3 3 4 4 5
0 0 0 0 0 0 0 0 0 0 0 0 0 0 0 0 0 0 0 0 0 0 0 0 0 0 0 0 0 0 0 0 0 0 1 3 3 4 3 4 4 5 5
1 0 0 0 0 0 0 0 0 0 0 0 0 0 0 0 0 0 0 0 0 0 0 0 0 0 0 0 0 0 0 0 0 0 1 3 4 5 4 4 5 6 6
1 1 1 1 0 0 0 0 0 0 0 0 0 0 0 0 0 0 0 0 0 0 0 0 0 0 0 0 0 0 1 0 0 1 2 4 5 6 6 6 8 9 9
1 1 1 1 0 0 0 0 0 0 0 0 0 0 0 0 0 0 0 0 0 0 0 0 0 0 0 0 0 0 1 1 0 1 2 4 5 5 6 8 11 12 13
1 1 1 1 0 0 0 0 0 0 0 0 0 0 0 0 0 0 0 0 0 0 0 0 0 0 0 0 0 0 0 1 1 1 2 3 4 4 5 6 9 11 13
1 1 1 0 0 0 0 0 0 0 0 0 0 0 0 0 0 0 0 0 0 0 0 0 0 0 0 0 0 0 0 1 1 2 3 3 3 3 3 4 6 8 10
0 0 0 0 0 0 0 0 0 0 0 0 0 0 1 1 0 0 0 0 0 0 0 0 0 0 0 1 1 1 1 1 1 1 3 5 4 4 4 4 4 5 6
0 0 0 0 0 0 0 0 0 0 0 0 0 1 2 1 0 0 1 1 1 0 0 1 1 1 1 2 3 3 3 2 1 1 2 4 5 5 5 4 3 3 3
0 0 0 0 0 0 1 1 1 1 2 1 1 2 2 1 0 1 2 2 2 1 1 2 3 2 2 3 4 5 6 5 3 2 3 3 4 6 6 5 4 3 3
0 0 0 0 0 1 2 3 3 4 5 4 3 2 1 0 0 1 2 2 2 2 2 2 4 4 4 4 5 6 6 5 5 5 5 4 4 6 6 4 3 3 4
1 1 1 1 1 2 3 4 5 6 6 6 4 3 1 0 0 1 1 1 1 2 2 2 4 5 6 5 4 4 5 4 4 5 6 5 5 6 5 4 3 3 4
2 2 2 2 2 3 4 5 6 6 6 6 5 3 1 1 1 1 2 2 1 1 2 2 4 6 6 5 4 4 4 4 4 4 4 4 4 4 4 4 3 3 3

GEFSSE_con_probscp_306.txt.gz
Probability
1 1 0 0 0 0 0 0 0 0 0 0 0 1 1 1 1 2 3 4 4 5 5 6 7 6 5 5 7 8 7 6 5 4 4 4 3 4 4 3 1 2 4
1 0 0 0 0 0 0 0 0 0 0 0 0 1 2 1 1 2 3 4 4 4 4 5 7 6 4 5 6 7 6 6 6 5 5 4 3 4 4 2 1 2 4
0 0 0 0 0 0 0 0 0 0 0 0 0 1 1 1 1 2 3 3 3 3 3 4 5 5 4 4 5 5 5 5 5 5 4 3 4 4 3 2 1 2 3
0 0 0 0 0 0 0 0 0 0 0 0 0 0 0 1 2 3 4 3 2 1 1 1 1 2 3 4 4 4 5 5 5 4 4 3 3 4 3 3 2 2 3
0 0 1 1 1 0 0 0 0 0 0 0 0 0 1 2 4 5 6 4 2 0 0 0 0 1 2 3 3 3 5 6 6 5 4 3 3 3 3 3 4 4 4
0 0 1 2 2 1 0 1 1 0 0 1 1 0 1 2 4 6 7 4 2 1 0 1 1 1 2 2 3 3 4 6 6 5 4 3 3 3 3 4 5 5 4
0 0 0 1 2 2 1 2 2 1 1 2 2 1 0 1 3 4 4 3 2 1 0 1 1 2 2 3 3 3 4 5 4 3 3 3 3 3 3 3 4 4 4
0 0 0 1 1 2 2 2 2 2 2 2 2 1 0 1 1 1 1 1 1 0 0 1 1 2 3 3 3 3 3 3 2 2 3 3 3 3 3 3 3 4 4
0 0 0 0 0 1 1 1 1 1 1 1 1 0 0 1 1 2 2 1 0 0 0 0 1 2 3 3 3 3 3 2 1 1 3 3 3 3 3 3 3 4 4
0 0 0 0 0 0 0 0 0 0 0 0 0 0 1 1 2 3 3 2 1 1 0 0 0 1 1 2 2 2 2 1 1 2 3 3 3 3 3 2 2 2 3
0 0 0 0 0 0 0 0 0 0 0 0 0 0 1 1 1 2 2 2 2 1 0 0 0 0 0 1 1 1 1 1 2 2 3 3 3 3 2 1 0 1 1
1 1 0 0 0 0 0 0 0 0 0 0 0 0 0 0 0 0 0 1 1 1 0 0 1 0 0 0 0 0 0 1 1 1 1 2 2 2 1 0 0 0 0
2 1 0 0 0 0 0 0 0 0 0 0 0 0 0 0 0 0 0 0 0 0 0 0 0 0 0 0 0 0 0 0 0 0 1 2 2 1 0 0 0 0 0
2 1 0 0 0 0 0 0 0 0 0 0 0 0 0 0 0 0 0 0 0 0 0 0 0 0 0 0 0 0 0 0 0 0 2 5 5 3 2 1 1 0 0
1 0 0 0 0 0 0 0 0 0 0 0 0 0 0 0 0 0 0 0 0 0 0 0 0 0 0 0 0 0 0 0 0 0 3 7 8 6 5 4 3 2 2
0 0 0 0 0 0 0 0 0 0 0 0 0 0 0 0 0 0 0 0 0 0 0 0 0 0 0 0 0 0 0 0 0 0 2 5 8 8 7 6 6 6 7
0 0 0 0 0 0 0 0 0 0 0 0 0 0 0 0 0 0 0 0 0 0 0 0 0 0 0 0 0 0 0 0 0 0 2 4 5 5 7 7 7 9 10
1 2 1 0 0 0 0 0 0 0 0 0 0 0 0 0 0 0 0 0 0 0 0 0 0 0 0 0 0 0 0 0 0 1 3 4 3 3 4 7 8 9 9
2 3 2 1 1 0 1 1 1 1 0 0 0 0 0 0 0 0 0 0 0 0 0 1 1 1 0 0 0 0 1 1 2 2 4 5 4 4 4 6 8 8 7
2 3 3 3 2 1 1 2 2 2 1 1 1 1 1 0 0 0 0 0 0 0 0 1 2 2 1 2 2 2 2 2 3 4 5 5 5 5 5 6 8 8 7
1 3 3 3 3 3 3 4 4 3 2 2 2 2 1 0 0 0 1 2 1 1 1 1 2 2 2 3 4 5 4 4 4 4 4 4 4 4 4 5 7 8 8
2 3 4 4 4 5 6 6 6 5 3 2 1 1 1 1 1 1 2 3 2 2 1 2 2 2 3 4 6 7 6 5 5 5 5 5 5 5 5 5 6 7 8
3 3 4 5 6 8 9 8 7 5 3 1 0 0 0 0 1 2 3 3 3 3 3 3 3 4 4 5 6 7 7 6 6 7 7 7 7 6 6 6 6 7 7
2 2 3 6 8 10 11 10 8 5 2 0 1 1 1 1 0 1 3 4 4 4 4 4 6 8 8 8 8 8 7 7 8 8 7 7 7 7 6 6 6 7 7
2 1 2 6 9 10 11 11 9 6 3 2 3 3 3 2 1 1 3 5 4 4 5 7 9 11 12 11 10 9 8 8 8 7 6 6 7 7 7 7 8 8 9
1 0 2 6 9 10 11 11 9 7 5 4 5 5 4 3 2 2 4 5 4 4 7 10 11 11 12 12 11 9 8 7 7 6 5 5 8 8 7 8 10 11 11

GEFSSE_con_probscp_312.txt.gz
Probability
0 1 0 0 0 0 0 0 0 0 0 0 0 0 0 0 0 1 1 3 6 8 9 10 10 9 8 7 8 9 9 8 8 7 6 6 4 3 3 2 1 3 5
1 1 0 0 0 0 0 0 0 0 0 0 0 0 0 0 1 1 2 3 5 7 9 9 9 7 6 6 8 9 9 8 7 7 6 5 4 4 3 3 1 3 5
0 0 0 0 0 0 0 0 0 0 0 0 0 0 0 0 1 2 3 3 5 7 8 8 6 5 5 5 8 9 7 6 6 6 6 4 4 4 4 3 2 3 5
0 0 0 0 0 1 0 0 0 0 0 0 0 0 0 0 0 1 2 3 5 6 6 5 3 3 3 4 6 7 6 5 6 6 6 3 3 4 4 3 3 4 4
0 0 0 0 0 0 0 0 0 0 0 0 0 0 0 0 0 1 2 3 3 4 3 2 1 1 1 3 5 7 6 6 6 6 5 3 3 5 5 4 4 4 4
0 0 0 0 0 0 0 1 1 0 0 0 0 0 0 0 2 3 3 3 2 2 2 1 1 0 1 4 6 6 6 6 6 5 4 3 5 8 8 5 4 4 4
0 0 0 0 0 0 0 1 1 0 0 1 1 0 0 1 4 6 5 4 2 1 1 1 1 1 3 6 7 6 5 6 5 5 4 4 7 11 10 7 6 5 4
0 0 0 1 1 1 1 1 1 0 1 2 2 1 1 3 6 8 6 4 1 0 1 2 2 2 4 7 7 7 7 7 6 5 4 5 9 12 11 8 7 6 4
0 0 0 0 1 2 1 0 0 0 1 2 3 3 3 4 7 8 6 3 1 0 1 1 1 2 4 6 8 9 9 8 6 4 3 5 8 10 11 9 7 6 4
0 0 0 0 0 1 0 1 2 1 1 3 4 5 5 6 6 6 4 2 1 1 0 1 1 4 6 8 9 10 10 7 4 3 3 5 6 7 9 9 8 6 5
0 0 0 0 0 0 0 1 2 2 1 2 4 5 6 7 6 3 2 2 2 2 1 1 4 7 9 9 10 10 8 5 2 2 4 6 7 7 8 10 9 7 7
0 0 0 1 0 0 0 0 1 1 1 1 3 4 4 4 3 2 2 3 3 2 1 3 7 9 9 8 8 8 6 3 2 2 4 8 8 7 8 10 10 8 7
0 0 0 0 0 0 0 0 0 0 1 2 2 3 3 3 2 2 3 4 4 4 3 5 7 8 7 6 5 5 4 3 3 3 5 7 7 7 7 8 9 8 7
0 0 0 0 0 0 1 1 1 1 1 2 4 5 4 3 3 3 3 3 5 6 6 6 7 7 7 6 5 4 5 5 6 6 6 8 9 9 8 8 8 8 8
1 1 1 1 1 1 2 2 2 2 2 3 5 7 5 4 3 3 3 3 4 6 6 6 7 8 8 7 7 7 6 7 8 9 9 11 13 12 11 11 10 9 9
2 2 3 2 2 3 3 2 2 2 2 3 6 7 7 5 4 4 3 3 3 4 4 5 5 6 8 8 8 7 8 8 9 9 10 13 15 15 15 15 13 12 11
4 3 3 3 4 5 4 2 2 2 3 5 7 8 8 6 6 7 6 5 5 5 5 5 4 4 5 6 5 6 8 9 8 9 11 12 14 16 18 18 17 15 13
6 5 4 3 5 7 6 5 4 3 4 6 8 8 7 6 7 8 9 9 8 8 7 6 5 4 4 3 3 4 7 8 8 8 9 11 13 14 17 19 20 18 16
9 9 7 5 7 9 9 8 6 4 5 7 8 6 5 6 7 8 10 10 9 8 8 7 6 7 7 5 3 3 5 6 6 7 7 9 11 12 14 17 19 18 17
14 14 12 9 10 12 12 10 8 6 6 8 8 6 5 6 7 7 9 10 8 8 9 8 8 9 9 8 6 5 4 5 6 7 7 8 8 10 12 14 16 17 17
18 19 17 14 15 15 14 13 11 9 8 9 8 7 7 6 6 6 8 8 8 8 10 9 9 9 9 9 8 6 5 5 7 8 8 8 7 9 10 13 15 17 17
22 23 21 20 19 17 15 13 12 11 10 9 9 10 10 8 8 8 9 9 9 10 11 11 10 10 9 8 7 7 6 7 6 7 8 9 10 11 12 12 14 16 17
22 25 25 23 21 18 14 12 11 11 10 9 10 13 14 13 13 14 12 11 11 11 11 12 11 10 9 9 7 7 7 7 7 7 7 9 12 13 12 11 13 14 14
20 25 29 27 24 20 15 12 11 10 10 10 12 15 17 17 17 17 16 14 12 9 9 10 10 10 10 9 9 8 8 8 9 8 8 9 11 11 11 11 12 14 13
19 24 31 32 30 26 20 16 15 13 12 12 13 16 18 19 18 17 17 17 13 10 9 9 10 10 10 10 10 10 10 11 11 11 10 10 10 10 10 10 11 13 14
17 23 31 35 35 31 24 20 19 18 15 14 14 16 17 19 19 17 16 17 15 12 11 11 10 10 10 10 10 11 13 13 13 13 12 11 11 10 10 9 9 11 13

GEFSSE_con_probscp_318.txt.gz
Probability
0 0 0 0 0 0 0 0 0 1 1 1 1 0 0 1 3 6 7 7 7 6 7 6 4 4 3 2 1 0 0 1 2 5 6 5 4 2 4 5 3 2 2
0 0 0 0 0 0 0 0 0 0 0 1 1 1 0 1 2 6 7 8 7 7 6 5 5 5 4 2 1 1 0 0 2 4 5 4 3 3 4 4 3 2 2
0 0 0 0 0 0 0 0 0 0 0 0 1 1 1 1 3 6 8 8 8 6 4 4 6 7 5 3 2 2 1 1 2 3 4 3 3 4 4 4 3 3 3
0 0 0 0 0 0 0 0 0 0 0 0 0 1 1 2 4 7 7 7 7 6 5 4 5 6 6 4 3 3 2 2 3 3 2 2 3 5 5 4 3 4 5
0 0 0 0 0 0 0 0 0 0 0 0 0 0 0 1 3 5 6 7 8 8 5 4 4 4 4 3 2 3 3 3 4 3 1 1 3 4 5 4 3 4 5
0 0 0 0 0 0 0 0 0 0 0 0 0 0 0 0 2 5 6 7 9 8 5 3 3 3 2 2 1 2 4 6 5 3 2 3 3 4 5 4 3 4 4
0 0 0 0 0 0 0 0 0 0 0 0 0 1 1 1 3 6 6 7 8 7 4 3 3 3 3 2 1 2 5 6 4 3 3 3 3 4 5 4 4 4 4
0 0 0 0 0 0 0 0 0 0 1 2 2 1 1 1 3 5 5 6 8 7 4 4 3 2 2 2 1 2 5 4 3 3 3 3 3 5 6 6 5 5 4
0 0 0 0 0 0 0 1 1 0 1 3 3 2 1 1 2 4 4 5 7 6 5 4 2 1 1 1 1 2 3 3 3 3 3 3 4 6 8 9 8 6 6
0 0 0 0 0 0 0 2 3 2 3 4 4 3 2 1 1 3 4 5 6 5 4 4 3 3 2 2 2 2 3 4 4 4 4 4 4 7 9 11 9 7 6
0 0 0 0 0 0 0 2 3 4 4 4 3 2 2 1 1 3 5 6 5 5 4 4 6 6 4 4 4 5 5 5 4 4 4 5 6 8 10 10 9 7 6
0 0 0 0 0 0 0 0 1 2 2 1 1 1 1 0 0 2 4 5 4 4 4 5 6 6 5 4 4 4 4 4 4 3 4 6 7 8 9 10 9 7 6
0 0 0 0 0 0 0 0 0 0 0 0 0 0 0 0 0 1 3 4 4 3 3 4 4 4 4 3 3 2 2 3 3 2 2 5 7 7 8 8 8 6 5
0 0 0 0 0 0 0 0 0 0 0 0 0 0 0 0 0 1 3 3 3 2 2 2 2 3 3 3 3 2 2 3 3 2 2 4 6 7 7 7 6 6 6
0 0 0 0 0 0 0 0 0 0 0 0 0 0 0 0 1 1 2 2 1 1 1 1 2 3 3 3 3 3 3 3 3 3 3 4 7 9 9 8 7 6 6
0 0 0 0 0 0 2 2 2 0 0 0 0 0 1 1 2 2 1 0 0 0 1 2 3 3 3 3 3 3 3 3 3 3 3 4 8 11 11 10 8 7 6
0 0 0 1 0 1 3 5 3 1 0 0 0 1 3 3 3 3 1 0 0 0 1 2 2 2 2 2 2 3 3 3 3 3 3 4 7 10 13 12 10 8 7
1 0 0 1 1 2 4 5 3 1 0 0 0 1 2 3 3 3 2 2 1 0 1 1 1 1 2 2 2 2 3 3 3 2 3 4 6 8 10 12 11 10 10
2 1 1 1 2 3 4 4 3 1 0 0 0 0 1 3 3 3 3 3 2 2 2 1 1 2 2 2 2 3 3 2 1 1 1 3 4 6 7 9 10 12 12
3 2 3 4 5 6 6 5 2 1 0 0 0 0 1 2 3 3 3 3 3 4 3 2 2 3 2 3 3 3 3 1 0 0 0 1 2 3 4 5 6 9 10
5 5 7 8 8 8 7 5 2 1 0 0 0 1 1 2 3 3 3 3 4 4 4 4 4 2 1 2 3 3 2 1 0 0 0 0 0 1 2 3 4 5 5
8 8 11 11 10 8 7 6 4 2 0 0 0 1 2 2 3 3 3 3 2 2 3 4 5 4 3 3 3 3 1 0 0 0 0 0 0 0 1 2 3 3 3
8 10 12 11 9 7 7 6 5 3 1 1 0 1 1 2 3 3 3 1 1 0 1 3 5 7 7 5 4 4 2 1 1 2 1 1 1 1 1 2 2 3 4
8 10 11 10 8 7 7 6 6 4 3 2 1 1 2 3 4 3 3 1 0 0 0 3 6 9 9 7 5 4 3 3 3 3 3 2 2 2 2 2 2 3 4
9 10 11 9 8 7 7 7 7 6 4 3 2 3 5 6 5 4 4 3 1 1 2 4 7 9 9 9 7 5 3 3 3 3 3 3 3 3 3 3 2 2 3
11 11 10 10 9 8 7 8 8 7 6 5 4 6 7 6 6 6 5 4 3 3 4 5 7 9 10 10 9 6 4 3 3 3 3 3 3 3 3 3 2 2 3

GEFSSE_con_probscp_324.txt.gz
Probability
0 0 0 0 0 0 0 1 1 0 0 0 0 0 0 1 1 1 1 2 1 1 1 1 0 0 0 0 0 0 0 0 0 1 2 2 2 3 3 4 4 4 3
0 0 0 0 0 0 0 1 2 1 0 0 0 0 0 0 0 1 2 2 1 0 1 1 0 0 0 0 0 0 0 0 0 1 1 1 1 2 3 4 5 3 3
0 0 1 0 0 0 0 1 1 1 0 0 1 1 1 0 0 1 3 3 2 1 1 1 1 0 0 0 0 0 1 1 1 1 1 0 0 1 3 6 6 5 4
0 0 0 0 0 0 0 0 0 0 0 0 1 1 1 0 1 2 3 3 3 2 1 1 1 1 1 0 0 0 1 2 2 1 0 0 0 1 3 6 7 7 7
0 0 0 0 0 0 1 0 0 0 0 0 0 1 1 1 2 3 3 3 3 2 1 1 1 0 0 0 0 0 1 3 3 1 0 0 0 1 3 5 7 8 8
0 0 0 0 0 0 0 0 0 0 0 1 1 1 1 1 2 3 3 3 4 3 2 1 1 0 0 0 0 0 1 2 2 1 0 0 0 1 2 4 6 6 7
0 0 0 0 0 0 0 0 0 0 0 0 1 1 1 1 3 3 3 4 5 4 2 2 1 1 0 0 0 0 1 1 1 0 0 0 0 0 1 2 3 4 6
0 0 0 0 0 1 1 2 1 0 0 0 1 1 1 1 2 3 3 4 5 5 3 2 2 1 0 0 0 0 0 0 0 0 0 0 0 0 0 0 1 3 4
0 0 0 0 0 1 1 3 3 1 0 1 2 1 0 1 1 2 3 4 4 3 3 4 3 2 1 0 0 0 0 0 0 0 0 0 0 0 0 1 1 2 3
0 0 0 0 0 0 1 2 3 2 1 1 2 1 0 0 0 1 2 3 3 2 3 4 3 3 3 2 1 1 1 1 0 0 0 0 1 1 2 2 2 3 4
0 0 0 0 0 0 1 1 1 1 0 1 1 1 0 0 0 0 2 3 3 2 3 4 4 4 4 4 2 2 1 1 0 0 0 2 3 4 4 4 3 4 5
0 0 0 0 0 0 0 0 0 0 0 0 0 0 0 0 0 1 2 3 3 3 3 4 4 4 3 3 1 1 1 0 0 0 1 3 4 5 5 5 4 5 6
0 0 0 0 0 0 0 0 0 0 0 0 0 0 0 0 0 1 2 2 2 2 3 3 2 1 1 1 0 0 0 0 0 0 2 3 4 4 5 6 6 6 6
0 0 0 0 0 0 0 0 0 0 0 0 0 0 0 0 0 0 1 1 1 1 1 1 0 0 0 0 0 0 0 0 0 0 2 3 3 3 4 6 6 6 6
0 0 0 0 0 0 0 0 0 0 0 0 0 0 0 0 0 0 0 0 0 0 0 0 0 0 0 0 0 1 1 1 0 0 2 3 3 3 4 5 5 4 5
0 0 0 0 0 0 0 0 0 0 0 0 0 0 0 0 0 0 0 0 0 0 0 0 0 0 1 1 1 2 2 2 1 0 1 2 2 2 3 3 2 2 2
0 0 0 0 0 0 0 0 0 0 0 0 0 0 0 0 0 0 0 0 0 0 0 0 0 0 1 2 2 2 3 3 1 0 0 1 1 1 1 2 2 1 1
0 0 0 0 0 0 0 0 0 0 0 0 0 0 0 0 0 0 0 0 0 0 0 0 0 0 1 1 1 1 2 2 1 0 0 1 1 1 1 2 3 3 4
0 0 0 0 0 0 0 0 0 0 0 0 0 0 0 0 0 0 0 0 0 0 0 0 0 0 0 0 0 0 1 1 1 0 0 0 1 1 2 2 4 6 7
0 0 0 0 0 0 0 0 0 0 0 0 0 0 0 0 0 0 0 0 0 0 0 0 0 0 0 0 0 0 0 0 0 0 0 0 0 1 1 2 4 6 7
0 1 1 0 0 0 0 0 0 0 0 0 0 0 0 0 0 0 0 0 0 0 0 0 0 0 0 0 0 0 0 0 0 0 0 0 0 0 0 1 1 3 4
1 1 1 0 0 0 1 1 1 0 0 0 0 0 0 0 0 0 0 0 0 0 0 0 0 0 0 0 0 0 0 0 0 0 0 0 0 0 0 0 0 0 1
1 1 1 0 0 1 2 2 2 1 1 0 0 0 0 0 0 0 0 0 0 0 0 0 0 0 1 1 1 1 1 1 1 0 0 1 1 1 0 0 0 0 0
2 1 0 0 0 1 2 3 2 2 2 1 1 1 1 0 0 0 0 0 0 0 0 0 0 1 2 3 2 2 2 2 2 1 1 2 2 2 1 0 0 0 0
2 1 0 0 0 1 2 2 2 2 2 1 1 2 1 0 0 0 0 0 0 0 0 0 0 1 2 3 3 3 3 3 3 3 3 3 3 2 1 0 0 0 0
2 1 0 0 0 1 2 2 2 1 1 1 2 2 1 0 0 0 0 0 0 0 0 0 0 0 1 1 2 3 3 3 3 3 3 3 2 1 0 0 0 0 0

GEFSSE_con_probscp_330.txt.gz
Probability
0 0 0 0 0 0 0 0 0 1 2 3 3 3 3 3 2 2 2 2 1 0 0 0 1 1 0 0 1 2 2 2 3 3 2 4 5 6 6 6 6 6 6
0 0 0 0 0 0 0 0 0 1 2 3 3 3 3 3 3 2 2 1 1 0 0 1 2 2 1 0 0 1 2 2 3 3 3 3 5 6 6 6 6 6 6
0 0 0 0 0 0 0 0 0 1 2 3 3 3 4 4 3 1 1 0 0 0 0 1 2 3 2 1 0 1 2 3 3 3 2 3 4 6 6 6 6 7 7
0 0 1 1 1 0 0 0 0 1 2 3 3 4 5 5 4 1 0 1 1 0 0 1 2 3 2 1 1 1 3 3 3 3 1 1 2 4 5 6 6 6 7
0 0 1 2 1 0 0 0 0 0 1 2 3 5 7 6 5 3 2 2 2 1 0 1 2 3 2 2 2 3 3 3 3 2 1 0 1 3 4 5 5 5 5
0 0 1 1 1 0 0 0 0 0 1 2 3 5 6 6 5 4 3 3 3 2 1 1 2 3 3 3 4 5 4 3 3 2 1 0 1 3 3 4 4 3 3
0 0 0 0 0 0 1 1 0 0 0 1 2 4 5 6 5 4 3 3 3 2 2 2 3 3 3 3 5 5 4 3 2 1 0 0 1 2 3 5 6 5 3
0 0 0 0 0 1 2 1 0 0 1 1 1 2 4 5 5 4 3 3 2 2 2 2 4 4 3 3 4 4 3 2 1 0 0 0 1 1 2 4 6 6 5
0 0 0 0 0 1 2 2 1 1 3 3 2 2 2 3 3 4 4 3 2 2 2 2 3 4 3 2 2 2 2 2 1 1 0 0 1 1 1 1 3 4 5
0 0 0 0 0 0 1 1 2 3 4 4 3 2 2 2 2 2 3 3 2 2 1 1 3 4 3 2 2 2 2 2 1 1 1 1 1 0 0 0 1 3 4
0 0 0 0 0 0 0 1 1 2 3 2 1 2 2 1 0 1 1 2 2 1 0 1 3 4 4 3 3 2 2 1 0 1 1 1 0 0 0 0 1 2 4
0 0 0 0 0 0 0 0 0 1 1 0 0 1 1 0 0 0 1 2 2 2 1 2 4 5 4 2 2 2 1 0 0 0 1 1 0 0 0 0 1 1 3
0 0 0 0 0 0 0 0 0 0 0 0 0 0 0 0 0 0 1 2 3 3 3 3 4 3 2 0 0 0 0 0 0 0 0 1 0 0 0 0 0 0 1
0 0 0 0 0 1 1 0 0 0 0 0 0 0 0 0 0 0 1 2 2 2 2 2 2 1 0 0 0 0 0 0 0 0 0 0 0 0 0 1 1 0 0
0 0 0 0 1 2 2 1 0 0 0 0 0 0 0 0 0 0 1 1 1 1 1 1 0 0 0 0 0 0 0 0 0 0 0 0 0 0 0 1 1 0 0
0 0 0 1 3 3 2 1 0 0 0 0 0 0 0 0 0 0 0 0 0 0 0 0 0 0 0 0 0 0 0 0 0 0 0 0 0 0 0 1 1 0 0
0 1 1 3 4 4 2 1 1 0 0 0 0 1 0 0 0 0 0 0 0 0 0 0 0 0 0 0 0 0 0 0 0 0 1 1 1 1 1 0 0 0 1
1 2 3 3 3 2 1 2 2 1 1 1 1 1 0 0 0 0 0 0 0 0 0 0 0 0 0 0 0 0 0 0 0 0 1 2 2 2 2 1 1 1 2
3 3 3 3 2 1 1 2 3 2 2 2 2 1 1 1 1 0 0 0 0 0 0 0 0 0 0 0 0 0 0 0 0 0 0 1 1 1 3 3 4 4 4
4 3 3 3 2 1 1 2 3 3 3 3 3 2 2 3 2 1 0 0 0 0 0 0 0 0 0 0 0 0 0 0 0 0 0 0 0 1 3 5 7 6 5
5 4 3 3 3 2 3 3 4 3 2 2 2 2 4 5 3 1 0 0 0 1 1 1 0 0 0 0 0 0 0 0 1 1 1 1 1 1 2 4 7 7 6
5 4 3 3 2 3 3 4 4 2 1 1 2 3 5 5 4 3 1 0 0 1 2 1 1 1 0 0 0 0 0 1 2 3 3 2 2 3 2 3 5 6 6
4 3 3 3 3 3 3 4 3 1 1 1 1 2 3 3 4 3 1 0 1 1 2 2 2 2 0 0 1 1 1 3 3 4 5 5 5 5 3 1 2 4 6
4 4 3 3 3 2 2 3 3 1 1 0 0 1 2 3 3 4 4 3 3 3 2 1 1 1 0 1 2 3 4 5 5 5 6 5 5 5 3 1 1 3 5
6 5 5 6 5 4 3 4 4 3 1 0 0 1 3 4 4 4 5 6 5 4 2 1 1 1 1 2 4 5 6 6 6 5 4 3 2 2 2 2 3 4 4
6 7 8 9 10 7 5 6 6 5 2 1 1 2 5 6 4 3 4 5 5 4 2 2 2 1 2 3 4 5 6 6 6 4 2 1 0 0 2 4 5 6 5